Home   Weather   Paterson   Past weeks

Flag for USA Past Weather in Paterson, New Jersey, USA — Yesterday and Last 2 Weeks

Now
27 °F

Clear.


Feels Like: 20 °F
Forecast: 28 / 37 °F
Wind: 6 mph from West

Location: Essex County Airport

Current Time: Dec 10, 2016 at 3:58:34 am

Latest Report: Dec 10, 2016 at 2:53 am


Visibility: 10 mi

Pressure: 30.35 "Hg

Humidity: 61%

Dew Point: 15 °F

Location of PatersonLocation

Past Weather in Paterson — Graph

°F

Paterson Temperature Yesterday

Maximum temperature yesterday: 39 °F (at 1:53 pm)
Minimum temperature yesterday: 28 °F (at 11:53 pm)
Average temperature yesterday: 33 °F

High & Low Weather Summary for the Past Weeks

 TemperatureHumidityPressure
High60 °F (Nov 29, 2:53 pm)100% (Nov 26, 6:53 am)30.35 "Hg (Nov 26, 6:53 am)
Low26 °F (Dec 10, 1:53 am)33% (Dec 9, 1:53 pm)29.48 "Hg (Dec 1, 2:53 am)
Average42 °F71%30.04 "Hg
* Reported Nov 25 2:53 am — Dec 10 2:53 am, Paterson, Weather by CustomWeather, © 2016

Note: Actual official high and low records may vary slightly from our data, if they occured in-between our weather recording intervals... More about our weather records

Advertising

Paterson Weather History for the Previous 24 Hours

Scroll right to see more
 ConditionsComfort  
Time TempWeatherWind HumidityBarometerVisibility
2:53 am
Sat, Dec 10
27 °FClear.6 mph61%30.35 "Hg10 mi
1:53 am26 °FClear.3 mph63%30.34 "Hg10 mi
12:53 am27 °FClear.No wind58%30.31 "Hg10 mi
11:53 pm
Fri, Dec 9
28 °FClear.5 mph53%30.31 "Hg10 mi
10:53 pm29 °FClear.No wind51%30.32 "Hg10 mi
9:53 pm30 °FClear.6 mph45%30.32 "Hg10 mi
8:53 pm30 °FClear.7 mph45%30.31 "Hg10 mi
7:53 pm31 °FClear.10 mph41%30.30 "Hg10 mi
6:53 pm32 °FClear.14 mph41%30.29 "Hg10 mi
5:53 pm34 °FPassing clouds.14 mph38%30.26 "Hg10 mi
4:53 pm35 °FPassing clouds.20 mph38%30.22 "Hg10 mi
3:53 pm37 °FOvercast.9 mph36%30.19 "Hg10 mi
2:53 pm37 °FScattered clouds.15 mph34%30.16 "Hg10 mi
1:53 pm39 °FPassing clouds.21 mph33%30.13 "Hg10 mi
12:53 pm37 °FPartly sunny.24 mph36%30.13 "Hg10 mi
11:53 am38 °FScattered clouds.18 mph39%30.13 "Hg10 mi
10:53 am36 °FScattered clouds.20 mph50%30.14 "Hg10 mi
9:53 am35 °FSunny.13 mph54%30.15 "Hg10 mi
8:53 am33 °FSunny.15 mph56%30.13 "Hg10 mi
7:53 am32 °FSunny.7 mph56%30.12 "Hg10 mi
6:53 am31 °FClear.10 mph59%30.10 "Hg10 mi
5:53 am31 °FPassing clouds.6 mph57%30.09 "Hg10 mi
4:53 am31 °FPassing clouds.6 mph57%30.07 "Hg10 mi
3:53 am32 °FClear.7 mph52%30.07 "Hg10 mi
Weather by CustomWeather, © 2016

See weather overviewHow to use our weather pages